Time,TemperatureF,DewpointF,PressureIn,WindDirection,WindDirectionDegrees,WindSpeedMPH,WindSpeedGustMPH,Humidity,HourlyPrecipIn,Conditions,Clouds,dailyrainin,SoftwareType,DateUTC
2013-04-02 00:00:00,32.0,29.0,29.27,West,270,3.0,17.0,90,0.00,,,0.00,Rainwise IP-100,2013-04-02 04:00:00,
2013-04-02 00:02:00,32.0,29.0,29.27,North,360,6.0,17.0,90,0.00,,,0.00,Rainwise IP-100,2013-04-02 04:02:00,
2013-04-02 00:06:00,32.0,29.0,29.27,North,360,6.0,8.0,90,0.00,,,0.00,Rainwise IP-100,2013-04-02 04:06:00,
2013-04-02 00:11:00,31.0,28.0,29.27,North,360,4.0,8.0,88,0.00,,,0.00,Rainwise IP-100,2013-04-02 04:11:00,
2013-04-02 00:16:00,31.0,28.0,29.27,North,360,3.0,13.0,88,0.00,,,0.00,Rainwise IP-100,2013-04-02 04:16:00,
2013-04-02 00:21:00,31.0,28.0,29.27,North,360,3.0,7.0,88,0.00,,,0.00,Rainwise IP-100,2013-04-02 04:21:00,
2013-04-02 00:28:00,31.0,28.0,29.27,North,360,2.0,7.0,88,0.00,,,0.00,Rainwise IP-100,2013-04-02 04:28:00,
2013-04-02 00:44:00,30.0,28.0,29.29,West,270,7.0,7.0,89,0.00,,,0.00,Rainwise IP-100,2013-04-02 04:44:00,
2013-04-02 00:46:00,30.0,28.0,29.29,North,360,4.0,10.0,89,0.00,,,0.00,Rainwise IP-100,2013-04-02 04:46:00,
2013-04-02 00:51:00,30.0,28.0,29.29,North,360,5.0,9.0,88,0.00,,,0.00,Rainwise IP-100,2013-04-02 04:51:00,
2013-04-02 00:56:00,30.0,28.0,29.30,West,270,4.0,10.0,87,0.00,,,0.00,Rainwise IP-100,2013-04-02 04:56:00,
2013-04-02 01:01:00,30.0,28.0,29.30,West,270,7.0,10.0,86,0.00,,,0.00,Rainwise IP-100,2013-04-02 05:01:00,
2013-04-02 01:06:00,30.0,28.0,29.31,West,270,3.0,10.0,87,0.00,,,0.00,Rainwise IP-100,2013-04-02 05:06:00,
2013-04-02 10:01:00,33.0,16.0,29.42,SW,225,4.0,17.0,45,0.00,,,0.00,Rainwise IP-100,2013-04-02 14:01:00,
2013-04-02 10:03:00,32.0,11.0,29.42,WSW,247,17.0,17.0,40,0.00,,,0.00,Rainwise IP-100,2013-04-02 14:03:00,
2013-04-02 10:06:00,32.0,14.0,29.42,West,270,15.0,19.0,42,0.00,,,0.03,Rainwise IP-100,2013-04-02 14:06:00,
2013-04-02 10:11:00,32.0,11.0,29.42,WSW,247,14.0,24.0,39,0.18,,,0.03,Rainwise IP-100,2013-04-02 14:11:00,
2013-04-02 10:16:00,33.0,11.0,29.42,West,270,10.0,18.0,39,0.18,,,0.03,Rainwise IP-100,2013-04-02 14:16:00,
2013-04-02 10:21:00,33.0,14.0,29.42,SW,225,6.0,26.0,42,0.00,,,0.03,Rainwise IP-100,2013-04-02 14:21:00,
2013-04-02 10:27:00,33.0,14.0,29.42,West,270,18.0,31.0,41,0.00,,,0.03,Rainwise IP-100,2013-04-02 14:27:00,
2013-04-02 10:32:00,33.0,11.0,29.42,West,270,17.0,22.0,38,0.00,,,0.03,Rainwise IP-100,2013-04-02 14:32:00,
2013-04-02 10:36:00,32.0,14.0,29.42,SSW,202,4.0,22.0,43,0.00,,,0.03,Rainwise IP-100,2013-04-02 14:36:00,
2013-04-02 10:41:00,33.0,14.0,29.42,West,270,17.0,21.0,41,0.00,,,0.03,Rainwise IP-100,2013-04-02 14:41:00,
2013-04-02 10:46:00,33.0,11.0,29.42,West,270,10.0,20.0,39,0.00,,,0.03,Rainwise IP-100,2013-04-02 14:46:00,
2013-04-02 10:51:00,33.0,11.0,29.42,North,360,5.0,27.0,39,0.00,,,0.03,Rainwise IP-100,2013-04-02 14:51:00,
2013-04-02 10:56:00,33.0,11.0,29.42,WSW,247,11.0,19.0,38,0.00,,,0.03,Rainwise IP-100,2013-04-02 14:56:00,
2013-04-02 11:01:00,33.0,11.0,29.42,West,270,8.0,20.0,36,0.00,,,0.03,Rainwise IP-100,2013-04-02 15:01:00,
2013-04-02 11:06:00,32.0,11.0,29.42,West,270,8.0,22.0,39,0.00,,,0.03,Rainwise IP-100,2013-04-02 15:06:00,
2013-04-02 11:11:00,35.0,11.0,29.41,ESE,112,4.0,16.0,36,0.00,,,0.03,Rainwise IP-100,2013-04-02 15:11:00,
2013-04-02 11:16:00,34.0,11.0,29.41,WSW,247,12.0,20.0,37,0.00,,,0.03,Rainwise IP-100,2013-04-02 15:16:00,
2013-04-02 11:21:00,35.0,11.0,29.41,West,270,15.0,21.0,36,0.00,,,0.03,Rainwise IP-100,2013-04-02 15:21:00,
2013-04-02 11:26:00,35.0,11.0,29.41,North,360,10.0,17.0,35,0.00,,,0.03,Rainwise IP-100,2013-04-02 15:26:00,
2013-04-02 11:31:00,35.0,11.0,29.41,West,270,14.0,18.0,34,0.00,,,0.03,Rainwise IP-100,2013-04-02 15:31:00,
2013-04-02 11:36:00,34.0,8.0,29.41,West,270,10.0,24.0,32,0.00,,,0.03,Rainwise IP-100,2013-04-02 15:36:00,
2013-04-02 11:41:00,33.0,11.0,29.41,West,270,9.0,26.0,36,0.00,,,0.03,Rainwise IP-100,2013-04-02 15:41:00,
2013-04-02 11:46:00,33.0,11.0,29.41,West,270,10.0,24.0,36,0.00,,,0.03,Rainwise IP-100,2013-04-02 15:46:00,
2013-04-02 11:51:00,33.0,11.0,29.41,North,360,7.0,22.0,37,0.00,,,0.03,Rainwise IP-100,2013-04-02 15:51:00,
2013-04-02 11:56:00,34.0,14.0,29.41,WSW,247,3.0,25.0,39,0.00,,,0.03,Rainwise IP-100,2013-04-02 15:56:00,
2013-04-02 11:57:00,34.0,11.0,29.41,West,270,4.0,25.0,36,0.00,,,0.03,Rainwise IP-100,2013-04-02 15:57:00,
2013-04-02 12:01:00,35.0,11.0,29.41,North,360,4.0,17.0,37,0.00,,,0.03,Rainwise IP-100,2013-04-02 16:01:00,
2013-04-02 12:06:00,34.0,11.0,29.41,West,270,12.0,18.0,35,0.00,,,0.03,Rainwise IP-100,2013-04-02 16:06:00,
2013-04-02 12:11:00,34.0,11.0,29.41,West,270,12.0,24.0,33,0.00,,,0.03,Rainwise IP-100,2013-04-02 16:11:00,
2013-04-02 12:16:00,34.0,11.0,29.41,West,270,10.0,17.0,37,0.00,,,0.03,Rainwise IP-100,2013-04-02 16:16:00,
2013-04-02 12:21:00,34.0,11.0,29.40,WSW,247,11.0,22.0,34,0.00,,,0.03,Rainwise IP-100,2013-04-02 16:21:00,
2013-04-02 12:26:00,34.0,11.0,29.40,West,270,10.0,26.0,35,0.00,,,0.03,Rainwise IP-100,2013-04-02 16:26:00,
2013-04-02 12:31:00,34.0,14.0,29.40,West,270,4.0,23.0,41,0.00,,,0.03,Rainwise IP-100,2013-04-02 16:31:00,
2013-04-02 12:36:00,34.0,14.0,29.40,SW,225,7.0,24.0,38,0.00,,,0.03,Rainwise IP-100,2013-04-02 16:36:00,
2013-04-02 12:41:00,35.0,11.0,29.40,West,270,6.0,19.0,35,0.00,,,0.03,Rainwise IP-100,2013-04-02 16:41:00,
2013-04-02 12:46:00,35.0,11.0,29.40,West,270,12.0,21.0,35,0.00,,,0.03,Rainwise IP-100,2013-04-02 16:46:00,
2013-04-02 12:51:00,35.0,11.0,29.40,WSW,247,9.0,20.0,36,0.00,,,0.03,Rainwise IP-100,2013-04-02 16:51:00,
2013-04-02 12:56:00,35.0,11.0,29.40,West,270,5.0,21.0,37,0.00,,,0.03,Rainwise IP-100,2013-04-02 16:56:00,
2013-04-02 13:01:00,35.0,8.0,29.39,WSW,247,12.0,17.0,32,0.00,,,0.03,Rainwise IP-100,2013-04-02 17:01:00,
2013-04-02 13:07:00,34.0,8.0,29.39,West,270,12.0,25.0,32,0.00,,,0.03,Rainwise IP-100,2013-04-02 17:07:00,
2013-04-02 13:12:00,35.0,11.0,29.39,West,270,10.0,25.0,34,0.00,,,0.03,Rainwise IP-100,2013-04-02 17:12:00,
2013-04-02 13:17:00,35.0,8.0,29.39,North,360,3.0,18.0,32,0.00,,,0.03,Rainwise IP-100,2013-04-02 17:17:00,
2013-04-02 13:21:00,36.0,11.0,29.39,North,360,8.0,19.0,35,0.00,,,0.03,Rainwise IP-100,2013-04-02 17:21:00,
2013-04-02 13:22:00,36.0,11.0,29.39,North,360,4.0,19.0,35,0.00,,,0.03,Rainwise IP-100,2013-04-02 17:22:00,
2013-04-02 13:27:00,35.0,11.0,29.39,West,270,9.0,26.0,35,0.00,,,0.03,Rainwise IP-100,2013-04-02 17:27:00,
2013-04-02 13:32:00,34.0,11.0,29.39,West,270,8.0,24.0,34,0.00,,,0.03,Rainwise IP-100,2013-04-02 17:32:00,
2013-04-02 13:36:00,35.0,11.0,29.39,West,270,6.0,24.0,37,0.00,,,0.03,Rainwise IP-100,2013-04-02 17:36:00,
2013-04-02 13:41:00,35.0,11.0,29.39,West,270,9.0,20.0,35,0.00,,,0.03,Rainwise IP-100,2013-04-02 17:41:00,
2013-04-02 13:46:00,34.0,11.0,29.39,West,270,9.0,20.0,37,0.00,,,0.03,Rainwise IP-100,2013-04-02 17:46:00,
2013-04-02 13:51:00,35.0,11.0,29.38,West,270,13.0,20.0,37,0.00,,,0.03,Rainwise IP-100,2013-04-02 17:51:00,
2013-04-02 13:56:00,35.0,11.0,29.38,West,270,9.0,24.0,34,0.00,,,0.03,Rainwise IP-100,2013-04-02 17:56:00,
2013-04-02 14:01:00,35.0,11.0,29.39,West,270,6.0,19.0,34,0.00,,,0.03,Rainwise IP-100,2013-04-02 18:01:00,
2013-04-02 14:06:00,35.0,11.0,29.39,West,270,6.0,17.0,33,0.00,,,0.03,Rainwise IP-100,2013-04-02 18:06:00,
2013-04-02 14:11:00,36.0,11.0,29.38,West,270,9.0,9.0,34,0.00,,,0.03,Rainwise IP-100,2013-04-02 18:11:00,
2013-04-02 14:16:00,35.0,11.0,29.38,West,270,13.0,14.0,33,0.00,,,0.03,Rainwise IP-100,2013-04-02 18:16:00,
2013-04-02 14:17:00,35.0,11.0,29.38,West,270,4.0,17.0,34,0.00,,,0.03,Rainwise IP-100,2013-04-02 18:17:00,
2013-04-02 14:22:00,35.0,11.0,29.37,WSW,247,9.0,21.0,35,0.00,,,0.03,Rainwise IP-100,2013-04-02 18:22:00,
2013-04-02 14:27:00,34.0,11.0,29.37,West,270,7.0,22.0,34,0.00,,,0.03,Rainwise IP-100,2013-04-02 18:27:00,
2013-04-02 14:31:00,35.0,11.0,29.37,North,360,8.0,19.0,34,0.00,,,0.03,Rainwise IP-100,2013-04-02 18:31:00,
2013-04-02 14:36:00,34.0,11.0,29.37,West,270,9.0,23.0,36,0.00,,,0.03,Rainwise IP-100,2013-04-02 18:36:00,
2013-04-02 14:37:00,34.0,11.0,29.37,South,180,4.0,23.0,36,0.00,,,0.03,Rainwise IP-100,2013-04-02 18:37:00,
2013-04-02 14:42:00,34.0,11.0,29.37,West,270,10.0,14.0,34,0.00,,,0.03,Rainwise IP-100,2013-04-02 18:42:00,
2013-04-02 14:47:00,34.0,11.0,29.37,West,270,5.0,19.0,33,0.00,,,0.03,Rainwise IP-100,2013-04-02 18:47:00,
2013-04-02 14:51:00,34.0,11.0,29.37,West,270,16.0,22.0,33,0.00,,,0.03,Rainwise IP-100,2013-04-02 18:51:00,
2013-04-02 14:56:00,34.0,11.0,29.37,West,270,6.0,22.0,34,0.00,,,0.03,Rainwise IP-100,2013-04-02 18:56:00,
2013-04-02 15:01:00,34.0,11.0,29.36,West,270,8.0,19.0,35,0.00,,,0.03,Rainwise IP-100,2013-04-02 19:01:00,
2013-04-02 15:06:00,34.0,8.0,29.36,West,270,8.0,22.0,32,0.00,,,0.03,Rainwise IP-100,2013-04-02 19:06:00,
2013-04-02 15:12:00,34.0,14.0,29.35,West,270,3.0,21.0,39,0.00,,,0.03,Rainwise IP-100,2013-04-02 19:12:00,
2013-04-02 15:16:00,35.0,11.0,29.35,West,270,9.0,20.0,36,0.00,,,0.03,Rainwise IP-100,2013-04-02 19:16:00,
2013-04-02 15:20:00,35.0,11.0,29.35,West,270,16.0,18.0,35,0.00,,,0.03,Rainwise IP-100,2013-04-02 19:20:00,
2013-04-02 15:22:00,35.0,11.0,29.35,West,270,8.0,18.0,35,0.00,,,0.03,Rainwise IP-100,2013-04-02 19:22:00,
2013-04-02 15:27:00,35.0,14.0,29.35,SW,225,3.0,15.0,39,0.00,,,0.03,Rainwise IP-100,2013-04-02 19:27:00,
2013-04-02 15:28:00,35.0,14.0,29.35,SW,225,4.0,15.0,39,0.00,,,0.03,Rainwise IP-100,2013-04-02 19:28:00,
2013-04-02 15:33:00,35.0,14.0,29.37,WSW,247,6.0,13.0,41,0.00,,,0.03,Rainwise IP-100,2013-04-02 19:33:00,
2013-04-02 15:36:00,36.0,14.0,29.37,WSW,247,5.0,19.0,36,0.00,,,0.03,Rainwise IP-100,2013-04-02 19:36:00,
2013-04-02 15:41:00,35.0,11.0,29.37,North,360,10.0,20.0,36,0.00,,,0.03,Rainwise IP-100,2013-04-02 19:41:00,
2013-04-02 15:46:00,36.0,11.0,29.37,West,270,7.0,18.0,33,0.00,,,0.03,Rainwise IP-100,2013-04-02 19:46:00,
2013-04-02 15:51:00,36.0,14.0,29.36,West,270,4.0,22.0,37,0.00,,,0.03,Rainwise IP-100,2013-04-02 19:51:00,
2013-04-02 15:55:00,35.0,11.0,29.36,West,270,6.0,22.0,33,0.00,,,0.03,Rainwise IP-100,2013-04-02 19:55:00,
2013-04-02 15:56:00,35.0,11.0,29.36,West,270,9.0,20.0,36,0.00,,,0.03,Rainwise IP-100,2013-04-02 19:56:00,
2013-04-02 16:01:00,35.0,11.0,29.36,West,270,18.0,22.0,33,0.00,,,0.03,Rainwise IP-100,2013-04-02 20:01:00,
2013-04-02 16:06:00,35.0,11.0,29.36,West,270,8.0,19.0,34,0.00,,,0.03,Rainwise IP-100,2013-04-02 20:06:00,
2013-04-02 16:11:00,35.0,8.0,29.35,West,270,9.0,15.0,32,0.00,,,0.03,Rainwise IP-100,2013-04-02 20:11:00,
2013-04-02 16:16:00,35.0,11.0,29.35,West,270,13.0,15.0,33,0.00,,,0.03,Rainwise IP-100,2013-04-02 20:16:00,
2013-04-02 16:21:00,35.0,11.0,29.36,North,360,3.0,14.0,34,0.00,,,0.03,Rainwise IP-100,2013-04-02 20:21:00,
2013-04-02 16:26:00,37.0,11.0,29.36,West,270,5.0,16.0,31,0.00,,,0.03,Rainwise IP-100,2013-04-02 20:26:00,
2013-04-02 16:31:00,37.0,14.0,29.35,West,270,7.0,13.0,36,0.00,,,0.03,Rainwise IP-100,2013-04-02 20:31:00,
2013-04-02 16:36:00,36.0,11.0,29.35,WSW,247,8.0,16.0,32,0.00,,,0.03,Rainwise IP-100,2013-04-02 20:36:00,
2013-04-02 16:39:00,36.0,11.0,29.35,West,270,14.0,16.0,35,0.00,,,0.03,Rainwise IP-100,2013-04-02 20:39:00,
2013-04-02 16:42:00,36.0,11.0,29.35,West,270,13.0,15.0,35,0.00,,,0.03,Rainwise IP-100,2013-04-02 20:42:00,
2013-04-02 16:47:00,35.0,11.0,29.35,West,270,10.0,20.0,33,0.00,,,0.03,Rainwise IP-100,2013-04-02 20:47:00,
2013-04-02 16:51:00,35.0,11.0,29.35,West,270,7.0,13.0,33,0.00,,,0.03,Rainwise IP-100,2013-04-02 20:51:00,
2013-04-02 16:56:00,35.0,11.0,29.35,West,270,5.0,17.0,36,0.00,,,0.03,Rainwise IP-100,2013-04-02 20:56:00,
2013-04-02 17:01:00,36.0,11.0,29.36,West,270,9.0,13.0,32,0.00,,,0.03,Rainwise IP-100,2013-04-02 21:01:00,
2013-04-02 17:06:00,35.0,8.0,29.36,West,270,14.0,20.0,32,0.00,,,0.03,Rainwise IP-100,2013-04-02 21:06:00,
2013-04-02 17:11:00,35.0,8.0,29.35,West,270,17.0,26.0,31,0.00,,,0.03,Rainwise IP-100,2013-04-02 21:11:00,
2013-04-02 17:16:00,35.0,8.0,29.35,West,270,16.0,24.0,32,0.00,,,0.03,Rainwise IP-100,2013-04-02 21:16:00,
2013-04-02 17:21:00,35.0,11.0,29.36,West,270,5.0,17.0,33,0.00,,,0.03,Rainwise IP-100,2013-04-02 21:21:00,
2013-04-02 17:26:00,35.0,11.0,29.36,North,360,5.0,21.0,34,0.00,,,0.03,Rainwise IP-100,2013-04-02 21:26:00,
2013-04-02 17:31:00,35.0,8.0,29.36,West,270,11.0,26.0,32,0.00,,,0.03,Rainwise IP-100,2013-04-02 21:31:00,
2013-04-02 17:36:00,35.0,11.0,29.36,West,270,8.0,19.0,34,0.00,,,0.03,Rainwise IP-100,2013-04-02 21:36:00,
2013-04-02 17:41:00,35.0,11.0,29.37,WSW,247,10.0,19.0,34,0.00,,,0.03,Rainwise IP-100,2013-04-02 21:41:00,
2013-04-02 17:46:00,34.0,11.0,29.37,West,270,7.0,21.0,34,0.00,,,0.03,Rainwise IP-100,2013-04-02 21:46:00,
2013-04-02 17:51:00,34.0,11.0,29.37,North,360,7.0,17.0,33,0.00,,,0.03,Rainwise IP-100,2013-04-02 21:51:00,
2013-04-02 17:56:00,34.0,11.0,29.37,West,270,4.0,15.0,37,0.00,,,0.03,Rainwise IP-100,2013-04-02 21:56:00,
2013-04-02 18:01:00,34.0,11.0,29.37,North,360,6.0,16.0,37,0.00,,,0.03,Rainwise IP-100,2013-04-02 22:01:00,
2013-04-02 18:06:00,33.0,11.0,29.37,North,360,4.0,18.0,37,0.00,,,0.03,Rainwise IP-100,2013-04-02 22:06:00,
2013-04-02 18:11:00,33.0,11.0,29.37,West,270,5.0,11.0,39,0.00,,,0.03,Rainwise IP-100,2013-04-02 22:11:00,
2013-04-02 18:16:00,33.0,14.0,29.37,West,270,4.0,6.0,41,0.00,,,0.03,Rainwise IP-100,2013-04-02 22:16:00,
2013-04-02 18:21:00,34.0,14.0,29.37,North,360,3.0,7.0,41,0.00,,,0.03,Rainwise IP-100,2013-04-02 22:21:00,
2013-04-02 18:26:00,33.0,11.0,29.37,West,270,12.0,12.0,39,0.00,,,0.03,Rainwise IP-100,2013-04-02 22:26:00,
2013-04-02 18:31:00,33.0,14.0,29.37,North,360,5.0,12.0,40,0.00,,,0.03,Rainwise IP-100,2013-04-02 22:31:00,
2013-04-02 18:36:00,33.0,14.0,29.37,West,270,2.0,14.0,40,0.00,,,0.03,Rainwise IP-100,2013-04-02 22:36:00,
2013-04-02 18:41:00,33.0,14.0,29.37,West,270,6.0,9.0,41,0.00,,,0.03,Rainwise IP-100,2013-04-02 22:41:00,
2013-04-02 18:46:00,33.0,14.0,29.37,West,270,8.0,9.0,41,0.00,,,0.03,Rainwise IP-100,2013-04-02 22:46:00,
2013-04-02 18:47:00,33.0,14.0,29.37,West,270,9.0,10.0,41,0.00,,,0.03,Rainwise IP-100,2013-04-02 22:47:00,
2013-04-02 18:52:00,33.0,14.0,29.38,West,270,3.0,11.0,40,0.00,,,0.03,Rainwise IP-100,2013-04-02 22:52:00,
2013-04-02 18:57:00,33.0,14.0,29.38,West,270,5.0,9.0,42,0.00,,,0.03,Rainwise IP-100,2013-04-02 22:57:00,
2013-04-02 19:01:00,33.0,14.0,29.39,West,270,6.0,13.0,41,0.00,,,0.03,Rainwise IP-100,2013-04-02 23:01:00,
2013-04-02 19:06:00,32.0,14.0,29.39,North,360,3.0,8.0,42,0.00,,,0.03,Rainwise IP-100,2013-04-02 23:06:00,
2013-04-02 19:07:00,32.0,14.0,29.39,West,270,3.0,8.0,42,0.00,,,0.03,Rainwise IP-100,2013-04-02 23:07:00,
2013-04-02 19:11:00,32.0,14.0,29.39,WSW,247,7.0,12.0,43,0.00,,,0.03,Rainwise IP-100,2013-04-02 23:11:00,
2013-04-02 19:16:00,32.0,11.0,29.39,West,270,2.0,14.0,41,0.00,,,0.03,Rainwise IP-100,2013-04-02 23:16:00,
2013-04-02 19:21:00,32.0,14.0,29.39,North,360,5.0,12.0,42,0.00,,,0.03,Rainwise IP-100,2013-04-02 23:21:00,
2013-04-02 19:26:00,32.0,14.0,29.39,West,270,4.0,11.0,44,0.00,,,0.03,Rainwise IP-100,2013-04-02 23:26:00,
2013-04-02 19:31:00,32.0,14.0,29.39,North,360,9.0,9.0,43,0.00,,,0.03,Rainwise IP-100,2013-04-02 23:31:00,
2013-04-02 19:54:00,31.0,14.0,29.39,West,270,5.0,9.0,45,0.00,,,0.03,Rainwise IP-100,2013-04-02 23:54:00,
2013-04-02 19:56:00,31.0,14.0,29.39,West,270,7.0,19.0,45,0.00,,,0.03,Rainwise IP-100,2013-04-02 23:56:00,
2013-04-02 21:23:00,30.0,16.0,29.42,WSW,247,11.0,17.0,53,0.00,,,0.03,Rainwise IP-100,2013-04-03 01:23:00,
2013-04-02 21:26:00,30.0,16.0,29.42,West,270,9.0,18.0,53,0.00,,,0.03,Rainwise IP-100,2013-04-03 01:26:00,
2013-04-02 21:31:00,30.0,16.0,29.42,West,270,4.0,13.0,53,0.00,,,0.03,Rainwise IP-100,2013-04-03 01:31:00,
2013-04-02 21:36:00,29.0,16.0,29.42,West,270,5.0,21.0,54,0.00,,,0.03,Rainwise IP-100,2013-04-03 01:36:00,
2013-04-02 21:37:00,29.0,16.0,29.42,West,270,4.0,21.0,54,0.00,,,0.03,Rainwise IP-100,2013-04-03 01:37:00,
2013-04-02 21:41:00,29.0,16.0,29.41,West,270,8.0,14.0,54,0.00,,,0.03,Rainwise IP-100,2013-04-03 01:41:00,
2013-04-02 21:46:00,29.0,16.0,29.41,North,360,10.0,16.0,55,0.00,,,0.03,Rainwise IP-100,2013-04-03 01:46:00,
2013-04-02 21:51:00,29.0,16.0,29.42,WSW,247,7.0,10.0,58,0.00,,,0.03,Rainwise IP-100,2013-04-03 01:51:00,
2013-04-02 21:52:00,29.0,16.0,29.42,West,270,8.0,10.0,57,0.00,,,0.03,Rainwise IP-100,2013-04-03 01:52:00,
2013-04-02 21:56:00,29.0,16.0,29.42,West,270,7.0,11.0,58,0.00,,,0.03,Rainwise IP-100,2013-04-03 01:56:00,
2013-04-02 22:02:00,29.0,18.0,29.42,WSW,247,13.0,17.0,60,0.00,,,0.03,Rainwise IP-100,2013-04-03 02:02:00,
2013-04-02 22:08:00,29.0,16.0,29.42,West,270,5.0,17.0,55,0.00,,,0.03,Rainwise IP-100,2013-04-03 02:08:00,
2013-04-02 22:16:00,29.0,16.0,29.41,West,270,7.0,7.0,55,0.00,,,0.03,Rainwise IP-100,2013-04-03 02:16:00,
2013-04-02 22:21:00,29.0,16.0,29.41,West,270,7.0,8.0,55,0.00,,,0.03,Rainwise IP-100,2013-04-03 02:21:00,
2013-04-02 22:26:00,29.0,16.0,29.41,North,360,4.0,8.0,55,0.00,,,0.03,Rainwise IP-100,2013-04-03 02:26:00,
2013-04-02 23:00:00,29.0,14.0,29.40,West,270,10.0,10.0,52,0.00,,,0.03,Rainwise IP-100,2013-04-03 03:00:00,
2013-04-02 23:01:00,29.0,14.0,29.41,WSW,247,6.0,16.0,52,0.00,,,0.03,Rainwise IP-100,2013-04-03 03:01:00,
2013-04-02 23:06:00,29.0,14.0,29.41,West,270,16.0,16.0,52,0.00,,,0.03,Rainwise IP-100,2013-04-03 03:06:00,
2013-04-02 23:12:00,29.0,14.0,29.41,WSW,247,17.0,19.0,50,0.00,,,0.03,Rainwise IP-100,2013-04-03 03:12:00,
2013-04-02 23:36:00,29.0,14.0,29.40,West,270,8.0,19.0,51,0.00,,,0.03,Rainwise IP-100,2013-04-03 03:36:00,
2013-04-02 23:41:00,29.0,14.0,29.40,West,270,13.0,29.0,50,0.00,,,0.03,Rainwise IP-100,2013-04-03 03:41:00,
2013-04-02 23:46:00,29.0,14.0,29.40,West,270,15.0,18.0,50,0.00,,,0.03,Rainwise IP-100,2013-04-03 03:46:00,
2013-04-02 23:51:00,29.0,14.0,29.40,WSW,247,15.0,16.0,49,0.00,,,0.03,Rainwise IP-100,2013-04-03 03:51:00,